CW5532 Weather Reports


Display with metric or nautical units.
time (UTC)temp
F
wind
direction
speed
MPH
gust
MPH
rain 1hr
in
rain 24hr
in
rain mn
in
humidity
%
barometer
mb
20260831090229 78 97 0.0 0.0 0.00 0.00 0.00 56 1017.4
20260831080729 74 101 0.0 0.0 0.00 0.00 0.00 57 1017.3
20260831070229 70 259 0.0 1.0 0.00 0.00 0.00 61 1016.9
20260831060229 59 214 0.0 0.0 0.00 0.00 0.00 78 1016.6
20260831053728 56 186 0.0 0.0 0.00 0.00 0.00 79 1016.6
20260831053229 56 245 0.0 0.0 0.00 0.00 0.00 78 1016.4
20260831050728 57 252 0.0 0.0 0.00 0.00 0.00 78 1016.1
20260831050229 57 252 0.0 0.0 0.00 0.00 0.00 77 1015.9
20260831040729 57 252 0.0 0.0 0.00 0.00 0.00 77 1015.8
20260831040228 58 252 0.0 0.0 0.00 0.00 0.00 77 1015.8
20260831033728 58 252 0.0 0.0 0.00 0.00 0.00 77 1015.7
20260831020728 60 252 0.0 0.0 0.00 0.00 0.00 74 1015.2
20260831020228 60 252 0.0 0.0 0.00 0.00 0.00 73 1015.3
20260831013728 61 252 0.0 0.0 0.00 0.00 0.00 72 1015.1
20260831010728 63 252 0.0 0.0 0.00 0.00 0.00 69 1015.1
20260831003728 64 266 0.0 2.0 0.00 0.00 0.00 66 1015.0
20260831003229 64 232 1.0 6.0 0.00 0.00 0.00 66 1015.1
20260831000228 65 251 0.0 3.0 0.00 0.00 0.00 65 1015.1
20260830233728 65 246 0.0 5.0 0.00 0.00 0.00 66 1015.2
20260830233228 64 232 0.0 1.0 0.00 0.00 0.00 67 1015.1
20260830223728 65 248 0.0 0.0 0.00 0.00 0.00 68 1015.3
20260830223228 65 248 0.0 0.0 0.00 0.00 0.00 67 1015.3
20260830213228 68 274 0.0 0.0 0.00 0.00 0.00 64 1014.9
20260830203727 70 274 0.0 0.0 0.00 0.00 0.00 60 1014.5
20260830193727 74 274 0.0 0.0 0.00 0.00 0.00 54 1013.8
20260830190728 78 236 0.0 0.0 0.00 0.00 0.00 48 1013.2
20260830190228 78 234 0.0 0.0 0.00 0.00 0.00 48 1013.4
20260830183727 80 234 0.0 0.0 0.00 0.00 0.00 46 1013.1
20260830180727 82 215 0.0 5.0 0.00 0.00 0.00 44 1012.7
20260830173727 84 225 1.0 6.0 0.00 0.00 0.00 42 1012.7
20260830173227 84 199 0.0 10.0 0.00 0.00 0.00 42 1012.7
20260830170227 87 219 3.0 12.0 0.00 0.00 0.00 40 1012.5
20260830160727 88 142 5.0 12.0 0.00 0.00 0.00 38 1012.5
20260830153727 90 136 1.0 9.0 0.00 0.00 0.00 38 1012.3
20260830150727 90 128 5.0 12.0 0.00 0.00 0.00 39 1012.4
20260830143227 91 125 2.0 15.0 0.00 0.00 0.00 39 1012.5
20260830140727 91 149 5.0 13.0 0.00 0.00 0.00 41 1012.6
20260830140227 91 110 6.0 14.0 0.00 0.00 0.00 39 1012.6
20260830133227 91 106 4.0 13.0 0.00 0.00 0.00 39 1013.0
20260830123727 91 123 1.0 3.0 0.00 0.00 0.00 35 1013.4
20260830110226 86 110 2.0 12.0 0.00 0.00 0.00 44 1014.8
20260830103726 84 78 3.0 12.0 0.00 0.00 0.00 47 1015.2
20260830103226 84 90 0.0 12.0 0.00 0.00 0.00 48 1015.3
20260830093226 81 89 2.0 5.0 0.00 0.00 0.00 55 1015.9